DIAMANT DEB, 2685

Orbit data source: Space-Track

DIAMANT DEB, 2685 is space debris in LEO originally from a launch on Wed, 15 Feb 1967 UTC launched from the Hamma Guira Space Track Range (HGSTR). Debris objects in space refer to the collection of defunct objects orbiting the Earth. Examples of debris include non-operational satellites, rocket bodies, and fragments generated from explosions, collisions, or faulty payload assembly.

Loading next visibility...
Identifier
2685, 1967-014F
Orbit
LEO
Last TLE update
21 hours ago
Origin
Manufacturer
Unknown
Mission
Spacecraft
Bus & Motor
Unknown
Mass
Unknown
Launch date (UTC)
1967-02-15 (58 years ago)
Launch vehicle
Unknown
Launch site
Hamma Guira Space Track Range (HGSTR)
Object type
Payload
Rocket body
Debris
Shape & HBR
Unknown
Radar Cross Section
Small (<0.1 m²)

Expand to show TLE details & history

TLE from 21 hours ago
0 DIAMANT DEB
1 02685U 67014F   25199.62046559  .00002003  00000-0  36732-3 0  9991
2 02685  38.9359  45.8011 0362986 320.3445  37.1276 14.32459531919556
Epoch: 2025-07-18T14:53Z
TLE epoch observation values (Epoch: 2025-07-18T14:53:28.226Z)
Latitude
-0°
Longitude
-114.23582°
Altitude
579.243 km
Speed
7.68 km/s
True Right ascension
03h 03m 12s
True Declination
0° 00' 00"
Sunlit
Object was in daylight at epoch
Visualization orbit readout
Latitude
15.40872°
Longitude
41.42619°
Altitude
1,038.739 km
Speed
7.203 km/s
Apparent Right ascension
13h 03m 58s
Apparent Declination
-10° 00' 07"
Sunlit
Object is in daylight
Visualization observer readout
Local Sidereal Time
00:31:57
Azimuth
344.448° N
Elevation
-59.252°
Doppler factor
1
Orbital elements
Apogee altitude
1,046.087 km
Perigee altitude
525.988 km
Semi-major axis
7,164.175 km
Eccentricity
0.0363
Inclination
38.9359°
RAAN
45.8011°
Arg. of periapsis
320.3445°
True anomaly
39.73143°
Mean anomaly
37.1276°
Eccentric anomaly
38.42001°
Mean motion
3.57927 °/min
Orbital period
100.58 mins
BSTAR
0.00036732
Loading maneuver chart data...
Loading SW <> Apogee altitude chart data...
Loading historical data...
Loading historical data...
Loading historical data...
Loading historical data...
Loading historical data...
Loading historical data...
Loading historical data...
|